Location: Bas-Clignon
(44.2000°N, 6.6333°E)
Time: 12:35:13
(UTC+00:00)

ATLAS 2AS CENTAUR R/B - Pass Details

Date: 03 February 2023
Orbit: 986 x 1226 km, 63.7° (Epoch: 31 January)

Event Time Altitude Azimuth Distance (km) Brightness Sun altitude
Rises 18:23:47 0° 320° (NW) 3,949 6.2 -17.8°
Reaches altitude 10° 18:26:34 10° 317° (NW) 2,951 5.5 -18.3°
Maximum altitude 18:33:22 59° 241° (WSW) 1,202 3.2 -19.5°
Drops below altitude 10° 18:39:46 10° 163° (SSE) 2,785 4.7 -20.7°
Sets 18:42:20 0° 160° (SSE) 3,711 5.4 -21.1°
